This demonstration page uses our WeatherBlox Daily Observations layout. Learn more.

Hourly Observations for April 10, 2016

Temp ( °F °C ) Dew Point ( °F °C ) Humidity (%) Winds ( mph kmh ) Pressure ( in mb ) Visibility ( mi km ) Precip ( " mm )
12:15 am 00:15 Clear 61 16.2 46 7.8 58 58 S 16 26 29.53 1000 10 16.0934 0 0
12:35 am 00:35 Clear 60 15.7 46 7.8 60 60 S 15 24 29.53 1000 10 16.0934 0 0
12:55 am 00:55 Clear 59 15.2 46 7.7 61 61 SSW 14 22 29.56 1001 10 16.0934 0 0
1:15 am 01:15 Clear 59 15 46 7.9 63 63 SSW 21 33 29.56 1001 10 16.0934 0 0
1:35 am 01:35 Clear 58 14.5 46 8 65 65 SSW 14 22 29.56 1001 10 16.0934 0 0
1:55 am 01:55 Clear 56 13.5 46 7.8 69 69 SSW 12 19 29.56 1001 10 16.0934 0 0
2:15 am 02:15 Clear 56 13.6 47 8.3 71 71 SSW 15 24 29.56 1001 10 16.0934 0 0
2:35 am 02:35 Clear 56 13.1 47 8.4 73 73 SSW 13 20 29.56 1001 10 16.0934 0 0
2:55 am 02:55 Clear 55 12.5 47 8.3 76 76 SSW 13 20 29.56 1001 10 16.0934 0 0
3:15 am 03:15 Clear 54 12.2 47 8.4 78 78 SSW 16 26 29.53 1000 10 16.0934 0 0
3:35 am 03:35 Clear 54 12 47 8.5 79 79 SSW 14 22 29.53 1000 10 16.0934 0 0
3:55 am 03:55 Clear 53 11.7 47 8.5 81 81 S 13 20 29.56 1001 10 16.0934 0 0
4:15 am 04:15 Clear 53 11.7 47 8.6 81 81 S 12 19 29.56 1001 10 16.0934 0 0
4:35 am 04:35 Clear 53 11.5 48 8.7 83 83 S 8 13 29.56 1001 10 16.0934 0 0
4:55 am 04:55 Clear 52 11.1 48 8.7 85 85 SSW 9 15 29.56 1001 10 16.0934 0 0
5:15 am 05:15 Clear 52 11 48 8.7 86 86 S 9 15 29.56 1001 10 16.0934 0 0
5:35 am 05:35 Clear 51 10.8 48 8.7 87 87 SSW 9 15 29.56 1001 10 16.0934 0 0
5:55 am 05:55 Clear 51 10.7 48 8.7 88 88 SSW 7 11 29.56 1001 10 16.0934 0 0
6:15 am 06:15 Clear 52 11 48 9 88 88 SW 10 17 29.59 1002 10 16.0934 0 0
6:35 am 06:35 Clear 50 10 47 8.4 90 90 SW 7 11 29.59 1002 10 16.0934 0 0
6:55 am 06:55 Clear 49 9.3 46 7.9 91 91 WSW 5 7 29.59 1002 10 16.0934 0 0
7:15 am 07:15 Sunny 49 9.3 46 7.6 89 89 WNW 7 11 29.62 1003 10 16.0934 0 0
7:35 am 07:35 Sunny 51 10.8 42 5.4 70 70 N 14 22 29.62 1003 10 16.0934 0 0
7:55 am 07:55 Sunny 52 11 37 3 58 58 N 18 30 29.65 1004 10 16.0934 0 0
8:15 am 08:15 Sunny 53 11.5 36 2.1 53 53 N 22 35 29.65 1004 10 16.0934 0 0
8:35 am 08:35 Sunny 53 11.5 35 1.9 52 52 N 29 46 29.68 1005 10 16.0934 0 0
8:55 am 08:55 Sunny 53 11.4 35 1.6 51 51 N 26 43 29.68 1005 10 16.0934 0 0
9:15 am 09:15 Sunny 55 12.7 35 1.5 47 47 N 30 48 29.71 1006 10 16.0934 0 0
9:35 am 09:35 Sunny 56 13.5 32 0.2 40 40 N 33 54 29.68 1005 10 16.0934 0 0
9:55 am 09:55 Sunny 57 13.9 32 0.2 39 39 NNE 31 50 29.68 1005 10 16.0934 0 0
10:15 am 10:15 Sunny 58 14.5 32 0 37 37 NNE 30 48 29.68 1005 10 16.0934 0 0
10:35 am 10:35 Sunny 59 15.1 32 -0.2 35 35 NNE 29 46 29.71 1006 10 16.0934 0 0
10:55 am 10:55 Sunny 60 15.8 31 -0.3 34 34 N 29 46 29.71 1006 10 16.0934 0 0
11:15 am 11:15 Sunny 61 16.2 31 -0.8 32 32 N 33 54 29.74 1007 10 16.0934 0 0
11:35 am 11:35 Sunny 62 16.8 31 -0.4 31 31 N 32 52 29.74 1007 10 16.0934 0 0
11:55 am 11:55 Sunny 63 17.2 31 -0.5 30 30 N 26 43 29.74 1007 10 16.0934 0 0
12:15 pm 12:15 Sunny 63 17.2 31 -0.7 30 30 N 28 44 29.74 1007 10 16.0934 0 0
12:35 pm 12:35 Sunny 63 17.2 30 -1.1 29 29 NNE 25 41 29.74 1007 10 16.0934 0 0
12:55 pm 12:55 Sunny 63 17.1 29 -1.5 28 28 N 24 39 29.74 1007 10 16.0934 0 0
1:15 pm 13:15 Sunny 62 16.8 29 -1.7 28 28 N 23 37 29.74 1007 10 16.0934 0 0
1:35 pm 13:35 Sunny 61 16.3 29 -1.8 29 29 N 24 39 29.74 1007 10 16.0934 0 0
1:55 pm 13:55 Sunny 60 15.5 29 -1.6 31 31 NNE 20 31 29.74 1007 10 16.0934 0 0
2:15 pm 14:15 Sunny 60 15.8 28 -2.2 29 29 N 17 28 29.77 1008 10 16.0934 0 0
2:35 pm 14:35 Sunny 61 16.3 26 -3.2 26 26 N 20 31 29.77 1008 10 16.0934 0 0
2:55 pm 14:55 Sunny 61 16.2 27 -2.8 27 27 NNE 17 28 29.77 1008 10 16.0934 0 0
3:15 pm 15:15 Sunny 62 16.8 28 -2.5 27 27 NE 20 31 29.77 1008 10 16.0934 0 0
3:35 pm 15:35 Sunny 61 16.1 27 -2.8 27 27 NNE 14 22 29.77 1008 10 16.0934 0 0
3:55 pm 15:55 Sunny 63 17 28 -2.5 26 26 NNE 14 22 29.77 1008 10 16.0934 0 0
4:15 pm 16:15 Sunny 62 16.8 27 -2.7 26 26 NNE 14 22 29.77 1008 10 16.0934 0 0
4:35 pm 16:35 Sunny 62 16.9 28 -2.1 27 27 NNE 15 24 29.77 1008 10 16.0934 0 0
4:55 pm 16:55 Sunny 62 16.7 28 -2.3 27 27 NNE 16 26 29.77 1008 10 16.0934 0 0
5:15 pm 17:15 Sunny 62 16.9 29 -1.7 28 28 NNE 16 26 29.77 1008 10 16.0934 0 0
5:30 pm 17:30 Sunny 62 16.4 29 -1.5 30 30 NNE 15 24 29.77 1008 10 16.0934 0 0
5:55 pm 17:55 Sunny 60 15.8 30 -1 32 32 NNE 18 30 29.8 1009 10 16.0934 0 0
6:15 pm 18:15 Sunny 59 15.2 30 -1.2 33 33 NNE 21 33 29.8 1009 10 16.0934 0 0
6:35 pm 18:35 Sunny 59 14.9 30 -1 34 34 N 17 28 29.83 1010 10 16.0934 0 0
6:55 pm 18:55 Sunny 56 13.5 30 -1 37 37 NNE 15 24 29.85 1011 10 16.0934 0 0
7:15 pm 19:15 Partly Cloudy 56 13.5 31 -0.3 39 39 NNE 10 17 29.85 1011 10 16.0934 0 0
7:35 pm 19:35 Partly Cloudy 55 12.6 32 0 42 42 NNE 6 9 29.88 1012 10 16.0934 0 0
7:55 pm 19:55 Partly Cloudy 55 12.6 31 -0.5 41 41 N 6 9 29.88 1012 10 16.0934 0 0
8:15 pm 20:15 Mostly Cloudy 55 12.5 33 0.5 44 44 N 9 15 29.88 1012 10 16.0934 0 0
8:35 pm 20:35 Cloudy 55 12.5 33 0.8 45 45 N 13 20 29.91 1013 10 16.0934 0 0
8:55 pm 20:55 Cloudy 54 12.1 37 2.6 53 53 N 8 13 29.91 1013 10 16.0934 0 0
9:15 pm 21:15 Cloudy with Light Drizzle 53 11.5 38 3.4 58 58 N 6 9 29.94 1014 10 16.0934 0 0
9:35 pm 21:35 Cloudy with Light Drizzle 52 11 38 3.3 59 59 N 7 11 29.94 1014 10 16.0934 0 0
9:55 pm 21:55 Mostly Cloudy 51 10.5 38 3.5 62 62 N 7 11 29.94 1014 10 16.0934 0 0
10:15 pm 22:15 Mostly Cloudy 51 10.3 38 3.2 62 62 N 8 13 29.94 1014 10 16.0934 0 0
10:35 pm 22:35 Clear 49 9.2 37 2.8 65 65 NNW 7 11 29.94 1014 10 16.0934 0 0
10:55 pm 22:55 Partly Cloudy 47 8.5 37 2.6 67 67 NNW 6 9 29.97 1015 10 16.0934 0 0
11:15 pm 23:15 Partly Cloudy 46 7.9 37 2.9 71 71 NNW 6 9 29.97 1015 10 16.0934 0 0
11:35 pm 23:35 Clear 45 7.1 37 2.9 75 75 NNW 6 9 29.97 1015 10 16.0934 0 0
11:55 pm 23:55 Partly Cloudy 43 6.1 37 2.6 79 79 NW 5 7 30 1016 10 16.0934 0 0

Powered by AerisWeather